#timestamp,LO_Frequency,Hit,StdDev 
1681531215.6,286047000.3,N
1681531235.4,286047000.5,N
1681531255.3,286047001.1,N
1681531275.1,286046998.4,N
1681531276.0,286046998.4,N
1681531295.8,286047002.7,N
1681531315.7,286046999.8,N
1681531335.5,286047002.5,N
1681531355.3,286046999.8,N
1681531375.2,286046999.9,N
1681531395.0,286047000.1,N
1681531395.9,286047000.1,N
1681531415.7,286047001.3,N
1681531435.6,286047000.5,N
1681531455.4,286046999.8,N
1681531475.3,286046998.5,N
1681531495.1,286046998.4,N
1681531496.0,286046998.4,N
1681531515.8,286046999.8,N
1681531535.7,286047004.4,Y
1681531555.5,286047001.7,P
1681531575.4,286047019.0,P
1681531595.2,286047019.6,N
1681531615.0,286047019.2,N
1681531615.9,286047019.2,N
1681531635.8,286047022.0,N
1681531655.6,286046998.4,N
1681531675.4,286047019.7,N
1681531695.3,286047017.4,N
1681531715.1,286047018.9,N
1681531735.8,286047020.2,N
1681531755.7,286047019.9,N
1681531775.5,286047020.2,N
1681531795.4,286047019.0,N
1681531815.2,286047021.7,N
1681531835.0,286047019.4,N
1681531835.9,286047019.4,N
1681531855.8,286047019.5,N
1681531875.6,286047019.1,N
1681531895.4,286047019.1,N
1681531915.3,286047018.6,N
1681531935.1,286047020.2,N
1681531955.9,286047021.6,Y
1681531975.7,286047002.9,P
1681531995.5,286047004.1,N
1681532015.4,286047003.6,N
1681532035.2,286047003.0,N
1681532055.0,286047001.5,N
1681532055.9,286047001.5,N
1681532075.8,286046999.8,N
1681532095.6,286047002.0,N
1681532115.4,286047004.4,N
1681532135.3,286047003.5,N
1681532155.1,286047001.4,N
1681532175.9,286047001.6,N
1681532195.7,286047001.3,N
1681532215.5,286047003.9,N
1681532235.4,286047001.7,N
1681532255.2,286047004.3,N
1681532275.0,286047006.0,N
1681532275.9,286047006.0,N
1681532295.8,286047003.4,N
1681532315.6,286047003.3,N
1681532335.5,286047005.6,N
1681532355.3,286047007.0,N
1681532375.1,286047007.2,N
1681532395.9,286047005.5,N
1681532415.7,286047007.2,N
1681532435.5,286047005.8,N
1681532455.4,286047002.9,N
1681532475.2,286047005.3,N
1681532495.0,286047005.9,N
1681532495.9,286047005.9,N
1681532515.8,286047004.7,N
1681532535.6,286047005.7,N
1681532555.5,286047003.4,N
1681532575.3,286047005.5,N
1681532595.1,286047003.0,N
1681532615.9,286047004.8,N
1681532635.7,286047004.7,N
1681532655.5,286047003.3,N
1681532675.4,286047007.5,Y
1681532695.2,286047000.4,P
1681532715.0,286047001.2,N
1681532716.0,286047001.2,N
1681532735.8,286046999.0,N
1681532755.6,286046998.9,N
1681532775.5,286047001.2,N
1681532795.3,286047001.2,N
1681532815.1,286047001.0,N
1681532835.9,286047000.0,N
1681532855.7,286047000.3,N
1681532875.5,286047002.7,N
1681532895.4,286047002.6,N
1681532915.2,286047004.2,N
1681532935.1,286047003.6,N
1681532936.0,286047003.6,N
1681532955.8,286047001.6,N
1681532975.6,286047002.6,N
1681532995.5,286047004.3,N
1681533015.3,286047003.7,N
1681533035.1,286047001.8,N
1681533055.9,286047003.1,N
1681533075.7,286047003.0,N
1681533095.5,286047003.8,N
1681533115.4,286047003.0,N
1681533135.2,286047003.4,N
1681533155.1,286047003.7,N
1681533156.0,286047003.7,N
1681533175.8,286047004.3,N
1681533195.6,286047001.5,N
1681533215.5,286046999.8,N
1681533235.3,286047002.7,N
1681533255.1,286047000.1,N
1681533275.9,286047002.4,N
1681533295.7,286047001.9,N
1681533315.6,286047001.9,N
1681533335.4,286047001.3,N
1681533355.2,286046999.9,N
1681533375.1,286046999.7,N
1681533376.0,286046999.7,N
1681533395.8,286047002.6,N
1681533415.6,286047002.8,N
1681533435.5,286047002.5,N
1681533455.3,286047000.4,N
1681533475.2,286047001.0,N
1681533495.9,286046998.1,N
1681533515.7,286046997.0,N
1681533535.6,286046999.4,N
1681533555.4,286047011.9,Y
1681533575.2,286046999.5,P
1681533595.1,286046997.9,N
1681533596.0,286046997.9,N
1681533615.8,286046993.6,Y
1681533635.7,286046995.0,P
1681533655.5,286046997.9,N
1681533675.3,286046996.3,N
1681533695.2,286046995.9,N
1681533715.9,286046995.7,N
1681533735.7,286046993.3,Y
1681533755.6,286046997.1,P
1681533775.4,286046998.9,P
1681533795.2,286047000.6,N
1681533815.1,286047001.1,N
1681533816.0,286047001.1,N
1681533835.8,286046998.8,N
1681533855.7,286046999.0,N
1681533875.5,286046998.1,N
1681533895.3,286047001.2,N
1681533915.2,286046997.0,N
1681533935.0,286046998.2,N
1681533935.9,286046998.2,N
1681533955.7,286046999.0,N
1681533975.6,286046999.4,N
1681533995.4,286046997.8,N
1681534015.3,286046996.3,N
1681534035.1,286046995.5,N
1681534036.0,286046995.5,N
1681534055.8,286046994.9,N
1681534075.7,286046997.9,N
1681534095.5,286046996.6,N
1681534115.3,286046996.6,N
1681534135.2,286046996.8,N
1681534155.0,286046999.3,N
1681534155.9,286046999.3,N
1681534175.8,286046998.3,N
1681534195.6,286046998.5,N
1681534215.4,286046998.7,N
1681534235.3,286046999.5,N
1681534255.1,286046999.2,N
1681534275.8,286046999.2,N
1681534295.7,286046997.2,N
1681534315.5,286046995.3,N
1681534335.4,286046998.0,N
1681534355.2,286046997.6,N
1681534375.0,286046999.1,N
1681534375.9,286046999.1,N
1681534395.8,286046997.7,N
1681534415.6,286046995.4,Y
1681534435.4,286046998.7,P
1681534455.3,286046999.3,N
1681534475.1,286046998.4,N
1681534495.9,286046999.7,N
1681534515.7,286047002.6,Y
1681534535.5,286047002.3,P
1681534555.4,286047002.1,N
1681534575.2,286046999.7,N
1681534595.0,286047001.5,N
1681534595.9,286047001.5,N
1681534615.8,286047001.5,N
1681534635.6,286047001.8,N
1681534655.4,286047001.5,N
1681534675.3,286047002.0,N
1681534695.1,286047000.2,N
1681534715.9,286046999.9,N
1681534735.7,286047002.8,N
1681534755.5,286047000.9,N
1681534775.4,286047000.2,N
1681534795.2,286047000.7,N
